When you browse on this site, cookies collect data to enhance your experience and personalize the content and advertising you see.
Visit our Privacy Policy to learn more. By continuing to use the site, you agree to this use of cookies and data.
  • In Hungary
  • List of Countries
  • For 7 days
  • Water Temperature
  • Satellite Maps
  • Weather Map
  • News
  • Weather Widgets
  • user-avatar
    Login

    Hourly Weather Vivsya

    Today, 17 July, Wednesday

    Time Temperature Precipitation Wind Pressure Humidity
    00:00 +14°C° 0.5 mm 2 mps 725 mmHg 92%
    01:00 +14°C° 0.5 mm 2 mps 725 mmHg 93%
    02:00 +14°C° 0 mm 2 mps 725 mmHg 96%
    03:00 +13°C° 0.3 mm 2 mps 725 mmHg 96%
    04:00 +13°C° 0.3 mm 2 mps 725 mmHg 95%
    05:00 +12°C° 0.3 mm 2 mps 724 mmHg 95%
    06:00 +12°C° 0 mm 3 mps 724 mmHg 92%
    07:00 +13°C° 0 mm 3 mps 724 mmHg 89%
    08:00 +14°C° 0 mm 4 mps 724 mmHg 86%
    09:00 +15°C° 0.2 mm 4 mps 724 mmHg 81%
    10:00 +16°C° 0.2 mm 5 mps 724 mmHg 76%
    11:00 +17°C° 0.2 mm 5 mps 724 mmHg 71%
    12:00 +19°C° 0.2 mm 6 mps 724 mmHg 69%
    13:00 +19°C° 0.2 mm 6 mps 724 mmHg 67%
    14:00 +20°C° 0.2 mm 7 mps 724 mmHg 65%
    15:00 +18°C° 0.3 mm 7 mps 724 mmHg 68%
    16:00 +19°C° 0.3 mm 6 mps 724 mmHg 70%
    17:00 +19°C° 0.3 mm 6 mps 724 mmHg 73%
    18:00 +16°C° 0 mm 5 mps 724 mmHg 77%
    19:00 +15°C° 0 mm 4 mps 724 mmHg 82%
    20:00 +14°C° 0 mm 3 mps 724 mmHg 86%
    21:00 +13°C° 0 mm 3 mps 724 mmHg 88%
    22:00 +12°C° 0 mm 3 mps 724 mmHg 90%
    23:00 +12°C° 0 mm 3 mps 724 mmHg 91%

    Tomorrow, 18 July, Thursday

    Time Temperature Precipitation Wind Pressure Humidity
    00:00 +11°C° 0 mm 3 mps 725 mmHg 92%
    01:00 +11°C° 0 mm 3 mps 725 mmHg 93%
    02:00 +11°C° 0 mm 4 mps 725 mmHg 94%
    03:00 +10°C° 0 mm 3 mps 725 mmHg 95%
    04:00 +10°C° 0 mm 3 mps 725 mmHg 96%
    05:00 +10°C° 0 mm 3 mps 725 mmHg 96%
    06:00 +11°C° 0 mm 3 mps 725 mmHg 91%
    07:00 +13°C° 0 mm 4 mps 725 mmHg 86%
    08:00 +14°C° 0 mm 4 mps 726 mmHg 81%
    09:00 +17°C° 0 mm 4 mps 726 mmHg 76%
    10:00 +17°C° 0 mm 5 mps 726 mmHg 71%
    11:00 +19°C° 0 mm 5 mps 726 mmHg 66%
    12:00 +20°C° 0 mm 5 mps 726 mmHg 65%
    13:00 +20°C° 0 mm 5 mps 726 mmHg 63%
    14:00 +21°C° 0 mm 5 mps 727 mmHg 62%
    15:00 +21°C° 0 mm 4 mps 727 mmHg 63%
    16:00 +21°C° 0 mm 4 mps 727 mmHg 63%
    17:00 +21°C° 0 mm 4 mps 727 mmHg 64%
    18:00 +19°C° 0 mm 3 mps 727 mmHg 70%
    19:00 +18°C° 0 mm 2 mps 727 mmHg 75%
    20:00 +16°C° 0 mm 2 mps 727 mmHg 81%
    21:00 +16°C° 0 mm 1 mps 727 mmHg 83%
    22:00 +15°C° 0 mm 1 mps 727 mmHg 85%
    23:00 +14°C° 0 mm 1 mps 728 mmHg 87%

    Day after tomorrow, 19 July, Friday

    Time Temperature Precipitation Wind Pressure Humidity
    00:00 +14°C° 0 mm 1 mps 728 mmHg 87%
    01:00 +14°C° 0 mm 1 mps 728 mmHg 87%
    02:00 +13°C° 0 mm 1 mps 728 mmHg 88%
    03:00 +13°C° 0 mm 1 mps 728 mmHg 87%
    04:00 +13°C° 0 mm 1 mps 728 mmHg 87%
    05:00 +13°C° 0 mm 1 mps 728 mmHg 87%
    06:00 +15°C° 0 mm 1 mps 728 mmHg 82%
    07:00 +16°C° 0 mm 1 mps 728 mmHg 77%
    08:00 +19°C° 0 mm 1 mps 729 mmHg 72%
    09:00 +20°C° 0.1 mm 1 mps 729 mmHg 70%
    10:00 +21°C° 0.1 mm 1 mps 729 mmHg 67%
    11:00 +23°C° 0.1 mm 2 mps 729 mmHg 65%
    12:00 +23°C° 0.1 mm 2 mps 729 mmHg 61%
    13:00 +24°C° 0.1 mm 2 mps 729 mmHg 58%
    14:00 +25°C° 0.1 mm 2 mps 729 mmHg 54%
    15:00 +25°C° 0 mm 2 mps 729 mmHg 55%
    16:00 +25°C° 0 mm 2 mps 728 mmHg 55%
    17:00 +25°C° 0 mm 2 mps 728 mmHg 56%
    18:00 +23°C° 0.2 mm 2 mps 728 mmHg 64%
    19:00 +20°C° 0.2 mm 2 mps 728 mmHg 72%
    20:00 +19°C° 0.2 mm 1 mps 728 mmHg 80%
    21:00 +18°C° 0.1 mm 1 mps 728 mmHg 83%
    22:00 +16°C° 0.1 mm 1 mps 729 mmHg 85%
    23:00 +16°C° 0.1 mm 1 mps 729 mmHg 87%

    20 July, Saturday

    Time Temperature Precipitation Wind Pressure Humidity
    00:00 +16°C° 0 mm 1 mps 729 mmHg 88%
    01:00 +15°C° 0 mm 1 mps 729 mmHg 88%
    02:00 +15°C° 0 mm 1 mps 729 mmHg 89%
    03:00 +15°C° 0 mm 1 mps 729 mmHg 89%
    04:00 +15°C° 0 mm 1 mps 729 mmHg 90%
    05:00 +15°C° 0 mm 1 mps 729 mmHg 91%
    06:00 +16°C° 0 mm 1 mps 729 mmHg 87%
    07:00 +19°C° 0 mm 1 mps 729 mmHg 83%
    08:00 +20°C° 0 mm 1 mps 730 mmHg 80%
    09:00 +22°C° 0 mm 1 mps 730 mmHg 75%
    10:00 +23°C° 0 mm 1 mps 730 mmHg 70%
    11:00 +24°C° 0 mm 2 mps 730 mmHg 66%
    12:00 +25°C° 2.3 mm 2 mps 730 mmHg 66%
    13:00 +25°C° 2.3 mm 2 mps 730 mmHg 66%
    14:00 +25°C° 2.3 mm 2 mps 730 mmHg 66%
    15:00 +25°C° 1.4 mm 2 mps 730 mmHg 67%
    16:00 +25°C° 1.4 mm 1 mps 730 mmHg 67%
    17:00 +25°C° 1.4 mm 1 mps 730 mmHg 68%
    18:00 +24°C° 0.1 mm 1 mps 730 mmHg 72%
    19:00 +22°C° 0.1 mm 1 mps 730 mmHg 75%
    20:00 +21°C° 0.1 mm 1 mps 730 mmHg 79%
    21:00 +20°C° 0 mm 1 mps 730 mmHg 81%
    22:00 +19°C° 0 mm 1 mps 730 mmHg 83%
    23:00 +17°C° 0 mm 0 mps 730 mmHg 85%

    21 July, Sunday

    Time Temperature Precipitation Wind Pressure Humidity
    00:00 +16°C° 0 mm 0 mps 730 mmHg 86%
    01:00 +16°C° 0 mm 0 mps 730 mmHg 86%
    02:00 +16°C° 0 mm 0 mps 730 mmHg 87%
    03:00 +16°C° 0 mm 1 mps 730 mmHg 88%
    04:00 +16°C° 0 mm 1 mps 730 mmHg 88%
    05:00 +16°C° 0 mm 1 mps 730 mmHg 89%
    06:00 +19°C° 0 mm 1 mps 730 mmHg 85%
    07:00 +20°C° 0 mm 1 mps 731 mmHg 82%
    08:00 +22°C° 0 mm 1 mps 731 mmHg 78%
    09:00 +23°C° 0.1 mm 1 mps 731 mmHg 74%
    10:00 +24°C° 0.1 mm 1 mps 731 mmHg 70%
    11:00 +26°C° 0.1 mm 2 mps 731 mmHg 66%
    12:00 +26°C° 0.2 mm 2 mps 731 mmHg 63%
    13:00 +27°C° 0.2 mm 2 mps 731 mmHg 60%
    14:00 +28°C° 0.2 mm 1 mps 731 mmHg 57%
    15:00 +27°C° 1.2 mm 2 mps 730 mmHg 65%
    16:00 +26°C° 1.2 mm 2 mps 730 mmHg 72%
    17:00 +25°C° 1.2 mm 3 mps 730 mmHg 79%
    18:00 +23°C° 1.7 mm 2 mps 730 mmHg 83%
    19:00 +21°C° 1.7 mm 2 mps 730 mmHg 87%
    20:00 +21°C° 1.7 mm 1 mps 730 mmHg 91%
    21:00 +20°C° 0 mm 1 mps 730 mmHg 90%
    22:00 +20°C° 0 mm 1 mps 730 mmHg 90%
    23:00 +19°C° 0 mm 1 mps 730 mmHg 89%

    22 July, Monday

    Time Temperature Precipitation Wind Pressure Humidity
    00:00 +19°C° 0 mm 1 mps 730 mmHg 89%
    01:00 +18°C° 0 mm 1 mps 730 mmHg 89%
    02:00 +18°C° 0 mm 1 mps 730 mmHg 89%
    03:00 +18°C° 0 mm 1 mps 729 mmHg 90%
    04:00 +18°C° 0 mm 1 mps 729 mmHg 90%
    05:00 +18°C° 0 mm 1 mps 729 mmHg 91%
    06:00 +18°C° 0 mm 2 mps 729 mmHg 88%
    07:00 +19°C° 0 mm 2 mps 730 mmHg 86%
    08:00 +21°C° 0 mm 3 mps 730 mmHg 83%
    09:00 +22°C° 0.6 mm 3 mps 730 mmHg 81%
    10:00 +24°C° 0.6 mm 3 mps 730 mmHg 79%
    11:00 +25°C° 0.6 mm 4 mps 730 mmHg 76%
    12:00 +25°C° 0.9 mm 4 mps 729 mmHg 74%
    13:00 +26°C° 0.9 mm 4 mps 729 mmHg 71%
    14:00 +26°C° 0.9 mm 4 mps 729 mmHg 68%
    15:00 +26°C° 0.1 mm 3 mps 729 mmHg 69%
    16:00 +26°C° 0.1 mm 3 mps 729 mmHg 69%
    17:00 +26°C° 0.1 mm 3 mps 729 mmHg 70%
    18:00 +24°C° 0.1 mm 3 mps 728 mmHg 75%
    19:00 +22°C° 0.1 mm 3 mps 728 mmHg 80%
    20:00 +20°C° 0.1 mm 2 mps 728 mmHg 85%
    21:00 +19°C° 0 mm 2 mps 728 mmHg 87%
    22:00 +19°C° 0 mm 2 mps 728 mmHg 89%
    23:00 +18°C° 0 mm 2 mps 728 mmHg 91%
    Show more